Location: Little Suamico
(44.7175°N, 88.0093°W)
Time: 19:46:39
(UTC+00:00)

X-37B - Pass Details

Date: 20 April 2021
Orbit: 386 x 389 km, 45.0° (Epoch: 08 May)

Event Time Altitude Azimuth Distance (km) Brightness Sun altitude
Exits shadow 09:06:09 70° 183° (S) 414 0.5 -18.4°
Maximum altitude 09:06:14 71° 166° (SSE) 412 0.5 -18.4°
Drops below altitude 10° 09:09:25 10° 82° (E) 1,414 4.3 -18.0°
Sets 09:11:29 0° 80° (E) 2,269 5.6 -17.7°
